COSMOS 2135

Satellite information

Favourite Embed

Satellite Type and Status

PAYLOADIN ORBIT

Key statistics

Satellite COSMOS 2135 at a glance.

Uptime

12493

Days in orbit

Revolutions

≈ 13.8

Per day

Orbit

LEO

Low Earth Orbit

Inclination

82.8

Latest

Satellite identification and parameters

Extended collection of information and parameters for COSMOS 2135.

Object identification

Identified? True

Debris? False

Object name: COSMOS 2135

International designator: 1991-013A

Object number (NORAD): 21130

Object ID (CCSDS): 21130

Country: COMMONWEALTH OF INDEPENDENT STATES (CIS)

Current information (Y/N): Y

RCS size: LARGE

Orbital parameters

Period: 104.442 minutes

Inclination: 82.8275 deg

SMA: 7346.442 km

Apoapsis: 1015.597 km

Periapsis: 921.016 km

RAAN: 162.4481 deg

Eccentricy: 0.0064372

Argument of periapsis: 251.8196 deg

Mean anomaly: 107.5947 deg

Mean motion: 13.78755268 rev/day

Mean motion (dot): 0.00000081 rev/day2

B* drag term: 0.000064739 1/REarth

Two-line elements (TLE)

Creation date: May 10, 2025, 2:32 a.m.

Reference frame: TEME

Reference center: EARTH

Epoch: May 9, 2025, 2:26 p.m. UTC

TLE line 0: 0 COSMOS 2135

TLE line 1: 1 21130U 91013A 25129.60160601 .00000081 00000-0 64739-4 0 9992

TLE line 2: 2 21130 82.8275 162.4481 0064372 251.8196 107.5947 13.78755268720409

Live tracking on map

Real-time ground track for satellite COSMOS 2135.

In-orbit conjunctions

A list of the most updated potential collisions computed for object COSMOS 2135.

Target Orbit TCA Probability of collision Miss distance Type
COSMOS 1275 DEB LEO 2024-11-30 20:21:23 0.000339206 149.0 (m) DEBRIS
FENGYUN 1C DEB SSO 2024-11-28 18:15:39 0.0002225281 388.0 (m) DEBRIS

Associated space launch

Navigation satellite providing location information for the Tsiklon-B navigation system

COSMOS 2135 was lifted into orbit during the mission ‘Kosmos-3M | Parus 71’, on board a Kosmos-3M space rocket.

The launch took place on Feb. 26, 1991, 4:53 a.m. from 133/3 (133L).

For more information about the launch, click the button.

Launch to space Kosmos-3M | Parus 71
Kosmos-3M | Parus 71

Agency: N/A

Status: Launch Successful

Launch date: Feb. 26, 1991, 4:53 a.m. UTC

Rocket: Kosmos-3M

Launch pad: 133/3 (133L)

Location: Plesetsk Cosmodrome, Russian Federation

...

Latest news about this satellite

There are no fresh news available about this satellite. Check back as we update our databases every day.


Newsletter sign-up

Weekly statistics, charts and insights to help you stay on top of the space industry.